Location: Bathurst
(33.4193°S, 149.5775°E)
Time: 10:38:40
(UTC+10:00)

Vanguard 1 Rocket - Pass Details

Date: 20 June 2021
Orbit: 650 x 4226 km, 34.3° (Epoch: 02 August)

Event Time Altitude Azimuth Distance (km) Brightness Sun altitude
Rises 03:49:27 0° 359° (N) 8,224 12.3 -39.9°
Reaches altitude 10° 04:00:50 10° 21° (NNE) 7,419 12.2 -37.5°
Maximum altitude 04:11:03 14° 44° (NE) 6,939 12.3 -35.4°
Drops below altitude 10° 04:20:23 10° 68° (ENE) 6,852 12.6 -33.4°
Sets 04:29:23 0° 90° (E) 7,214 13.1 -31.6°
